User: anonymous   Login
Location: Drayton Valley
(53.2170°N, 114.9830°W)
Time: 02:18:17
(UTC-06:00)
Language:

MOZ.5/SAFIR/RUBIN 5/SL-8 - Orbit

View from above orbital plane
View from above orbital plane
View from above satellite
View from above satellite

Ground track
Ground track

The orbit data is extracted from the following two-line orbital elements,

1 28898U 05043G   14304.11989010  .00000555  00000-0  12554-3 0  9667
2 28898 097.8352 126.1942 0019161 331.1820 139.6231 14.59601498479756
Epoch (UTC): 31 October 2014 02:52:38
Eccentricity: 0.0019161
inclination: 97.8352°
perigee height: 681 km
apogee height: 708 km
right ascension of ascending node: 126.1942°
argument of perigee: 331.1820°
revolutions per day: 14.59601498
mean anomaly at epoch: 139.6231°
orbit number at epoch: 47975

The dashed part of the orbit path shows where the satellite is in the earth's shadow,  

DLR